x

8776604 - Baffin Bay; Point Of Rocks, Tx (babt2) Weather Station

9:00pm - Sun 10th Dec 2017 All times are CST. -6 hours from GMT.

  • Wind
    3mph, 3mph gusts
  • Sea Temp 56°f
  • Air Temp 57°f
  • Sea Pressure 1029.8mb
  • 8776604 - Baffin Bay; Point Of Rocks, Tx
  • 8776604 - Baffin Bay; Point Of Rocks, Tx

More Historic Weather Station data

Upgrade to MSW Pro to gain access to the past 30 days of data for over 8000 Wavebouys and Weather Stations around the globe.

Join

Comparision Forecast

View Surf forecast
   
Sun 12/10 9:00pm 3 3 mph 1029.8mb 56f 57f
8:54pm 2 2 mph 1029.7mb 56f 56f
8:48pm 2 3 mph 1029.6mb 56f 56f
8:42pm 2 2 mph 1029.6mb 56f 57f
8:36pm 1 1 mph 1029.6mb 56f 58f
8:30pm 1 2 mph 1029.7mb 56f 57f
8:24pm 2 2 mph 1029.6mb 56f 57f
8:18pm 2 2 mph 1029.6mb 56f 58f
8:12pm 2 2 mph 1029.6mb 56f 58f
8:06pm 2 2 mph 1029.7mb 56f 59f
8:00pm 2 2 mph 1029.8mb 56f 59f
7:54pm 2 2 mph 1029.8mb 56f 59f
7:48pm 2 2 mph 1029.8mb 56f 59f
7:42pm 2 2 mph 1029.8mb 56f 59f
7:36pm 2 2 mph 1029.8mb 56f 59f
7:30pm 2 3 mph 1029.8mb 56f 59f
7:24pm 2 2 mph 1029.7mb 56f 60f
7:18pm 2 3 mph 1029.9mb 56f 60f
7:12pm 2 3 mph 1029.8mb 56f 59f
7:06pm 2 3 mph 1029.9mb 56f 59f
7:00pm 3 3 mph 1029.7mb 56f 59f
6:48pm 3 3 mph 1029.7mb 56f 59f
6:42pm 3 3 mph 1029.7mb 56f 58f
6:36pm 2 3 mph 1029.8mb 56f 58f
6:30pm 2 3 mph 1029.7mb 56f 58f
6:24pm 3 3 mph 1029.7mb 56f 58f
6:18pm 3 5 mph 1029.7mb 56f 59f
6:12pm 5 5 mph 1029.6mb 56f 60f
6:06pm 5 5 mph 1029.5mb 56f 60f
6:00pm 5 5 mph 1029.5mb 56f 61f
5:54pm 5 5 mph 1029.6mb 56f 60f
5:48pm 3 5 mph 1029.5mb 56f 60f
5:42pm 5 5 mph 1029.5mb 56f 60f
5:36pm 5 5 mph 1029.6mb 56f 60f
5:30pm 3 5 mph 1029.6mb 56f 60f
5:24pm 5 5 mph 1029.6mb 56f 60f
5:18pm 5 6 mph 1029.5mb 56f 60f
5:12pm 6 6 mph 1029.5mb 56f 60f
5:06pm 6 8 mph 1029.5mb 55f 60f
5:00pm 7 7 mph 1029.4mb 55f 60f
4:54pm 7 8 mph 1029.4mb 55f 60f
4:48pm 8 8 mph 1029.3mb 55f 60f
4:42pm 7 8 mph 1029.3mb 55f 60f
4:36pm 6 7 mph 1029.4mb 55f 60f
4:30pm 6 7 mph 1029.5mb 55f 60f
4:24pm 6 7 mph 1029.4mb 55f 60f
4:18pm 7 9 mph 1029.3mb 55f 60f
4:12pm 8 8 mph 1029.3mb 55f 61f
4:06pm 6 7 mph 1029.3mb 55f 60f
4:00pm 7 8 mph 1029.2mb 55f 61f
3:54pm 7 8 mph 1029.2mb 55f 61f
3:48pm 8 8 mph 1029.1mb 55f 61f
3:42pm 7 8 mph 1029.1mb 55f 61f
3:36pm 7 9 mph 1029.1mb 55f 61f
3:30pm 7 9 mph 1029.1mb 55f 61f
3:24pm 7 9 mph 1029.1mb 55f 61f
3:18pm 7 9 mph 1029.1mb 54f 61f
3:12pm 7 9 mph 1029.1mb 54f 61f
3:06pm 7 9 mph 1029.1mb 54f 61f
3:00pm 8 9 mph 1029.1mb 54f 61f
2:54pm 9 9 mph 1029.1mb 54f 62f
2:48pm 8 9 mph 1029.1mb 54f 62f
2:42pm 8 9 mph 1029.2mb 54f 61f
2:36pm 6 7 mph 1029.1mb 54f 62f
2:30pm 7 8 mph 1029.3mb 54f 62f
2:24pm 6 7 mph 1029.3mb 54f 63f
2:18pm 7 8 mph 1029.3mb 54f 62f
2:12pm 8 8 mph 1029.3mb 54f 62f
2:06pm 7 8 mph 1029.4mb 54f 62f
2:00pm 6 7 mph 1029.4mb 54f 62f
1:54pm 5 6 mph 1029.4mb 54f 62f
1:48pm 2 5 mph 1029.4mb 53f 62f
1:42pm 5 5 mph 1029.5mb 53f 63f
1:36pm 3 5 mph 1029.6mb 53f 63f
1:30pm 2 3 mph 1029.6mb 53f 63f
1:24pm  -  3 mph 1029.7mb 53f 63f
1:18pm 3 3 mph 1029.8mb 53f 63f
1:12pm  -  1 mph 1030mb 53f 64f
1:06pm  -  2 mph 1030.3mb 53f 62f
1:00pm  -  3 mph 1030.4mb 53f 61f
12:48pm 3 6 mph 1030.6mb 53f 62f
12:42pm 6 6 mph 1030.8mb 52f 61f
12:36pm 5 6 mph 1030.8mb 52f 61f
12:30pm 6 8 mph 1030.9mb 52f 61f
12:24pm 7 8 mph 1031mb 52f 60f
12:18pm 7 8 mph 1031mb 52f 61f
12:12pm 7 9 mph 1031.1mb 52f 60f
12:06pm 8 9 mph 1031.2mb 52f 60f
12:00pm 7 8 mph 1031.4mb 52f 60f
11:54am 7 8 mph 1031.4mb 52f 60f
11:48am 7 8 mph 1031.4mb 52f 60f
11:42am 8 8 mph 1031.5mb 52f 60f
11:36am 6 9 mph 1031.6mb 52f 59f
11:30am 8 9 mph 1031.6mb 52f 59f
11:24am 8 9 mph 1031.7mb 52f 59f
11:18am 7 9 mph 1031.7mb 52f 59f
11:12am 8 9 mph 1031.8mb 51f 58f
11:06am 7 10 mph 1031.8mb 51f 58f
11:00am 9 11 mph 1031.8mb 51f 57f
10:54am 9 11 mph 1031.8mb 51f 57f
10:48am 10 13 mph 1031.9mb 51f 56f
10:42am 9 11 mph 1031.8mb 51f 56f
10:36am 8 10 mph 1031.8mb 51f 55f
10:30am 8 10 mph 1031.8mb 51f 55f
10:24am 9 11 mph 1031.7mb 51f 55f
10:18am 8 11 mph 1031.8mb 51f 55f
10:12am 10 11 mph 1031.8mb 51f 54f
10:06am 10 14 mph 1031.8mb 51f 54f
10:00am 10 14 mph 1031.8mb 51f 54f
9:54am 10 13 mph 1032mb 51f 54f
9:48am 11 13 mph 1031.9mb 51f 54f
9:42am 10 14 mph 1031.7mb 51f 55f
9:36am 10 13 mph 1031.7mb 51f 54f
9:30am 9 10 mph 1031.7mb 51f 54f
9:24am 8 11 mph 1031.6mb 51f 53f
9:18am 9 10 mph 1031.6mb 51f 53f
9:12am 9 10 mph 1031.6mb 51f 51f
9:06am 8 9 mph 1031.7mb 51f 51f
9:00am 8 9 mph 1031.4mb 51f 50f
8:54am 9 10 mph 1031.4mb 51f 50f
8:48am 9 11 mph 1031.3mb 51f 49f
8:42am 9 10 mph 1031.2mb 51f 49f
8:36am 9 10 mph 1031.1mb 51f 49f
8:30am 9 10 mph 1031mb 51f 49f
8:24am 8 9 mph 1030.9mb 51f 48f
8:18am 8 9 mph 1030.8mb 51f 47f
8:12am 8 9 mph 1030.8mb 51f 47f
8:06am 8 9 mph 1030.7mb 51f 47f
8:00am 8 9 mph 1030.7mb 51f 47f
7:54am 7 9 mph 1030.7mb 51f 48f
7:48am 7 7 mph 1030.6mb 51f 48f
7:42am 6 7 mph 1030.4mb 51f 48f
7:36am 7 8 mph 1030.5mb 51f 48f
7:30am 7 8 mph 1030.4mb 51f 48f
7:24am 6 7 mph 1030.2mb 51f 49f
7:18am 5 7 mph 1030.2mb 51f 49f
7:12am 6 7 mph 1030.2mb 51f 49f
7:06am 7 8 mph 1030.2mb 51f 48f
7:00am 6 7 mph 1030.1mb 51f 48f
6:48am 6 6 mph 1030.1mb 51f 47f
6:42am 3 5 mph 1030mb 51f 47f
6:36am 5 6 mph 1030mb 51f 46f
6:30am 5 6 mph 1030mb 51f 46f
6:24am 5 6 mph 1029.8mb 51f 46f
6:18am 5 6 mph 1029.8mb 51f 47f
6:12am 5 6 mph 1029.7mb 51f 46f
6:06am 6 7 mph 1029.7mb 51f 46f
6:00am 7 9 mph 1029.6mb 51f 45f
5:54am 8 10 mph 1029.6mb 51f 45f
5:48am 7 8 mph 1029.5mb 51f 45f
5:42am 7 8 mph 1029.4mb 51f 45f
5:36am 8 10 mph 1029.4mb 51f 45f
5:30am 7 7 mph 1029.3mb 51f 45f
5:24am 6 7 mph 1029.1mb 51f 45f
5:18am 6 6 mph 1029mb 51f 46f
5:12am 5 6 mph 1028.9mb 51f 46f
5:06am 5 5 mph 1028.9mb 51f 47f
5:00am 5 5 mph 1028.9mb 51f 48f
4:54am 3 3 mph 1028.8mb 51f 47f
4:48am 5 5 mph 1028.8mb 51f 47f
4:42am 3 3 mph 1028.8mb 51f 48f
4:36am 3 3 mph 1028.7mb 51f 47f
4:30am 2 2 mph 1028.6mb 51f 47f
4:24am 2 2 mph 1028.6mb 51f 47f
4:18am  -  mph 1028.5mb 51f 47f
4:12am  -  mph 1028.4mb 51f 48f
4:06am  -  mph 1028.3mb 51f 48f
4:00am 2 2 mph 1028.4mb 51f 48f
3:54am 2 2 mph 1028.3mb 51f 48f
3:48am 2 2 mph 1028.3mb 51f 49f
3:42am 2 2 mph 1028.2mb 51f 49f
3:36am 2 2 mph 1028.2mb 51f 49f
3:30am 2 3 mph 1028.3mb 51f 49f
3:24am 3 3 mph 1028.2mb 51f 49f
3:18am 2 3 mph 1028.2mb 51f 50f
3:12am 3 5 mph 1028.2mb 51f 50f
3:06am 3 3 mph 1028.2mb 51f 49f
3:00am 2 2 mph 1028.2mb 51f 49f
2:54am 2 2 mph 1028.3mb 51f 49f
2:48am 2 3 mph 1028.2mb 51f 49f
2:42am 3 3 mph 1028.3mb 51f 49f
2:36am 3 3 mph 1028.3mb 51f 49f
2:30am 2 2 mph 1028.4mb 51f 49f
2:24am 1 2 mph 1028.5mb 51f 49f
2:18am  -  1 mph 1028.6mb 51f 49f
2:12am  -  0 mph 1028.5mb 51f 49f
2:06am  -  0 mph 1028.4mb 51f 48f
2:00am  -  3 mph 1028.6mb 51f 48f
1:54am 2 3 mph 1028.7mb 51f 48f
1:48am  -  2 mph 1028.7mb 51f 48f
1:42am 2 2 mph 1028.6mb 51f 49f
1:36am 2 3 mph 1028.5mb 51f 49f
1:30am 3 5 mph 1028.5mb 51f 49f
1:24am 5 6 mph 1028.5mb 51f 49f
1:18am 5 5 mph 1028.4mb 51f 48f
1:12am 3 3 mph 1028.4mb 51f 48f
1:06am 3 5 mph 1028.4mb 51f 48f
1:00am 5 5 mph 1028.4mb 51f 48f
12:54am 3 5 mph 1028.5mb 51f 48f
12:48am 5 5 mph 1028.5mb 51f 49f
12:42am 3 5 mph 1028.5mb 51f 49f
12:36am 5 6 mph 1028.5mb 51f 49f
12:30am 5 5 mph 1028.5mb 51f 49f
12:24am 5 6 mph 1028.5mb 51f 49f
12:18am 5 5 mph 1028.5mb 51f 48f
12:12am 3 5 mph 1028.4mb 51f 48f
12:06am 5 5 mph 1028.4mb 51f 49f
12:00am 5 5 mph 1028.4mb 51f 50f
Sat 12/09 11:54pm 3 5 mph 1028.5mb 51f 50f
11:48pm 5 5 mph 1028.5mb 51f -
11:42pm 3 5 mph 1028.6mb 51f -
11:36pm 2 3 mph 1028.7mb 51f -
11:30pm 1 2 mph 1028.6mb 51f 50f
11:24pm 1 2 mph 1028.7mb 51f 50f
11:18pm 1 3 mph 1028.7mb 51f 50f
11:12pm 3 5 mph 1028.9mb 51f 51f
11:06pm 1 1 mph 1028.9mb 51f 50f
11:00pm  -  1 mph 1028.8mb 51f 50f
10:54pm 1 2 mph 1028.8mb 51f 50f
10:48pm 3 3 mph 1028.9mb 51f 51f
10:42pm 3 5 mph 1028.9mb 51f 51f
10:36pm 5 5 mph 1028.9mb 51f 51f
10:30pm 3 5 mph 1028.7mb 51f 51f
10:24pm 2 3 mph 1028.6mb 51f 52f
10:18pm 2 2 mph 1028.5mb 51f 52f
10:12pm  -  0 mph 1028.3mb 51f 52f
10:06pm  -  2 mph 1028.2mb 51f 52f
10:00pm 1 2 mph 1028.1mb 51f 53f
9:54pm 2 3 mph 1028.1mb 51f 53f
9:48pm 2 3 mph 1028.1mb 51f 52f
9:42pm 2 3 mph 1028.1mb 51f 52f
9:36pm 3 5 mph 1028mb 51f 53f
9:30pm 3 5 mph 1027.9mb 51f 53f
9:24pm 3 5 mph 1027.9mb 51f 54f
9:18pm 2 3 mph 1027.7mb 51f 54f
9:12pm 3 3 mph 1027.7mb 51f 54f
9:06pm 3 3 mph 1027.8mb 51f 53f
9:00pm 3 6 mph 1027.8mb 51f 52f
8:54pm 5 6 mph 1027.8mb 51f 52f
8:48pm 6 6 mph 1027.7mb 51f 53f
8:42pm 6 6 mph 1027.5mb 51f 55f
8:36pm 6 6 mph 1027.4mb 51f 53f
8:30pm 6 6 mph 1027.3mb 51f 54f
8:24pm 6 6 mph 1027.3mb 51f 54f
8:18pm 6 6 mph 1027.2mb 51f 53f
8:12pm 6 6 mph 1027.3mb 51f 53f
8:06pm 6 6 mph 1027.2mb 51f 53f
8:00pm 6 7 mph 1027.2mb 51f 53f
7:54pm 7 7 mph 1027.2mb 51f 53f
7:48pm 7 7 mph 1027.1mb 51f 54f
7:42pm 7 7 mph 1027.1mb 51f 54f
7:36pm 7 8 mph 1027.1mb 51f 53f
7:30pm 6 7 mph 1027mb 51f 55f
7:24pm 3 5 mph 1026.9mb 51f 57f
7:18pm 3 3 mph 1026.9mb 51f 57f
7:12pm 3 3 mph 1026.9mb 51f 57f
7:06pm 3 3 mph 1026.8mb 51f 56f
7:00pm 2 3 mph 1026.8mb 51f 57f
6:54pm 2 3 mph 1026.8mb 51f 57f
6:48pm 2 3 mph 1026.8mb 51f 56f
6:42pm 2 3 mph 1026.7mb 51f 56f
6:36pm 3 6 mph 1026.7mb 51f 57f
6:30pm 5 5 mph 1026.5mb 51f 58f
6:24pm 3 5 mph 1026.5mb 51f 58f
6:18pm 3 3 mph 1026.4mb 51f 58f
6:12pm 3 3 mph 1026.3mb 51f 59f
6:06pm 3 3 mph 1026.3mb 51f 60f
6:00pm 3 5 mph 1026.3mb 51f 60f
5:54pm 5 5 mph 1026.3mb 51f 59f
5:48pm 5 5 mph 1026.2mb 51f 59f
5:42pm 5 5 mph 1026.2mb 51f 60f
5:36pm 6 6 mph 1026.1mb 51f 60f
5:30pm 6 7 mph 1025.9mb 51f 59f
5:24pm 7 8 mph 1025.8mb 51f 61f
5:18pm 8 9 mph 1025.8mb 51f 61f
5:12pm 8 9 mph 1025.7mb 51f 61f
5:06pm 8 9 mph 1025.8mb 51f 60f
5:00pm 9 11 mph 1025.7mb 51f 61f
4:54pm 11 13 mph 1025.7mb 52f 61f
4:48pm 11 13 mph 1025.6mb 52f 61f
4:42pm 10 11 mph 1025.6mb 52f 60f
4:36pm 10 13 mph 1025.6mb 52f 60f
4:30pm 13 14 mph 1025.5mb 52f 61f
4:24pm 14 15 mph 1025.6mb 52f 61f
4:18pm 13 17 mph 1025.6mb 51f 60f
4:12pm 17 20 mph 1025.6mb 51f 62f
4:06pm 15 21 mph 1025.6mb 51f 61f
4:00pm 17 20 mph 1025.6mb 51f 62f
3:54pm 13 16 mph 1025.7mb 51f 60f
3:48pm 14 17 mph 1025.7mb 51f 61f
3:42pm 18 20 mph 1025.8mb 51f 61f
3:36pm 15 16 mph 1025.7mb 51f 60f
3:30pm 16 21 mph 1025.7mb 51f 61f
3:24pm 15 21 mph 1025.7mb 51f 60f
3:18pm 13 15 mph 1025.6mb 52f 60f
3:12pm 10 14 mph 1025.6mb 51f 60f
3:06pm 14 20 mph 1025.6mb 51f 60f
3:00pm 14 17 mph 1025.6mb 51f 60f
2:54pm 15 17 mph 1025.7mb 51f 60f
2:48pm 14 18 mph 1025.7mb 51f 60f
2:42pm 16 18 mph 1025.8mb 51f 60f
2:36pm 15 17 mph 1025.7mb 51f 60f
2:30pm 15 20 mph 1025.7mb 51f 59f
2:24pm 17 22 mph 1025.7mb 51f 59f
2:18pm 18 22 mph 1025.6mb 51f 59f
2:12pm 16 22 mph 1025.7mb 51f 58f
2:06pm 22 24 mph 1025.6mb 51f 59f
2:00pm 18 20 mph 1025.6mb 51f 59f
1:54pm 16 23 mph 1025.6mb 51f 59f
1:48pm 17 22 mph 1025.6mb 51f 58f
1:42pm 20 25 mph 1025.7mb 51f 58f
1:36pm 18 22 mph 1025.7mb 51f 58f
1:30pm 20 23 mph 1025.7mb 51f 58f
1:24pm 22 25 mph 1025.7mb 51f 58f
1:18pm 21 25 mph 1025.8mb 51f 58f
1:12pm 20 22 mph 1025.9mb 50f 58f
1:06pm 21 23 mph 1025.9mb 50f 58f
1:00pm 18 22 mph 1025.9mb 50f 58f
12:54pm 18 22 mph 1026.1mb 50f 58f
12:48pm 16 20 mph 1026.2mb 50f 57f
12:42pm 17 21 mph 1026.4mb 50f 57f
12:36pm 13 17 mph 1026.5mb 50f 56f
12:30pm 14 21 mph 1026.6mb 50f 56f
12:24pm 17 21 mph 1026.6mb 50f 56f
12:18pm 16 18 mph 1026.7mb 50f 56f
12:12pm 14 21 mph 1026.8mb 49f 55f
12:06pm 15 18 mph 1026.9mb 49f 55f
12:00pm 14 17 mph 1027mb 49f 55f
11:54am 15 17 mph 1027mb 49f 55f
11:48am 14 16 mph 1027.1mb 49f 55f
11:42am 14 16 mph 1027.1mb 49f 55f
11:36am 14 15 mph 1027.2mb 49f 54f
11:30am 11 17 mph 1027.3mb 49f 54f
11:24am 13 16 mph 1027.3mb 49f 54f
11:18am 14 17 mph 1027.4mb 48f 54f
11:12am 14 17 mph 1027.5mb 48f 54f
11:06am 14 17 mph 1027.5mb 48f 53f
11:00am 15 18 mph 1027.6mb 48f 53f
10:54am 15 21 mph 1027.7mb 48f 53f
10:48am 17 20 mph 1027.7mb 48f 53f
10:42am 18 20 mph 1027.8mb 48f 53f
10:36am 15 20 mph 1027.8mb 48f 53f
10:30am 16 21 mph 1027.8mb 48f 52f
10:24am 16 20 mph 1027.8mb 48f 52f
10:18am 15 21 mph 1027.9mb 48f 52f
10:12am 18 22 mph 1027.8mb 47f 52f
10:06am 16 21 mph 1027.8mb 47f 52f
10:00am 18 20 mph 1027.8mb 47f 51f
9:54am 18 20 mph 1027.8mb 47f 51f
9:48am 18 22 mph 1027.7mb 47f 50f
9:42am 16 21 mph 1027.6mb 47f 50f
9:36am 17 21 mph 1027.5mb 47f 50f
9:30am 18 21 mph 1027.4mb 47f 49f
9:24am 16 22 mph 1027.3mb 47f 49f
9:18am 20 23 mph 1027.2mb 47f 49f
9:12am 20 22 mph 1027.2mb 47f 48f
9:06am 20 23 mph 1027.1mb 47f 48f
9:00am 20 23 mph 1027mb 47f 48f
8:54am 18 22 mph 1027mb 47f 47f
8:48am 18 21 mph 1026.9mb 47f 47f
8:42am 17 20 mph 1026.8mb 47f 47f
8:36am 18 23 mph 1026.9mb 47f 46f
8:30am 18 21 mph 1026.8mb 47f 46f
8:24am 17 22 mph 1026.6mb 47f 46f
8:18am 17 21 mph 1026.6mb 47f 45f
8:12am 16 20 mph 1026.6mb 47f 45f
8:06am 16 21 mph 1026.5mb 47f 45f
8:00am 17 21 mph 1026.4mb 47f 45f
7:54am 18 21 mph 1026.3mb 47f 46f
7:48am 17 21 mph 1026.2mb 47f 46f
7:42am 16 21 mph 1026.1mb 47f 46f
7:36am 16 20 mph 1026mb 47f 46f
7:30am 16 17 mph 1026mb 47f 46f
7:24am 14 18 mph 1026mb 47f 46f
7:18am 16 18 mph 1025.9mb 47f 46f
7:12am 15 18 mph 1025.9mb 47f 46f
7:06am 14 17 mph 1026mb 47f 46f
7:00am 17 20 mph 1025.9mb 47f 46f
6:54am 15 18 mph 1025.9mb 47f 45f
6:48am 16 22 mph 1025.8mb 47f 45f
6:42am 17 21 mph 1025.7mb 47f 45f
6:36am 15 17 mph 1025.6mb 47f 45f
6:30am 16 20 mph 1025.6mb 47f 45f
6:24am 15 18 mph 1025.5mb 47f 45f
6:18am 17 20 mph 1025.4mb 47f 45f
6:12am 16 20 mph 1025.3mb 47f 45f
6:06am 15 17 mph 1025.2mb 48f 45f
6:00am 15 18 mph 1025.1mb 48f 45f
5:54am 14 16 mph 1025.1mb 48f 45f
5:48am 15 17 mph 1025mb 48f 45f
5:42am 15 17 mph 1025mb 48f 45f
5:36am 15 18 mph 1024.9mb 48f 45f
5:30am 15 18 mph 1024.9mb 48f 45f
5:24am 15 18 mph 1024.9mb 48f 45f
5:18am 15 18 mph 1024.8mb 48f 45f
5:12am 15 18 mph 1024.8mb 48f 45f
5:06am 15 20 mph 1024.8mb 48f 45f
5:00am 15 17 mph 1024.7mb 48f 45f
4:54am 15 17 mph 1024.7mb 48f 45f
4:48am 15 20 mph 1024.7mb 48f 45f
4:42am 16 18 mph 1024.7mb 48f 45f
4:36am 15 18 mph 1024.7mb 48f 45f
4:30am 15 18 mph 1024.6mb 48f 45f
4:24am 14 17 mph 1024.6mb 48f 46f
4:18am 16 18 mph 1024.6mb 48f 46f
4:12am 16 18 mph 1024.6mb 48f 46f
4:06am 17 20 mph 1024.5mb 48f 46f
4:00am 16 22 mph 1024.5mb 48f 46f
3:54am 17 21 mph 1024.6mb 48f 46f
3:48am 18 22 mph 1024.5mb 48f 46f
3:42am 18 22 mph 1024.5mb 48f 46f
3:36am 17 21 mph 1024.5mb 48f 46f
3:30am 18 23 mph 1024.5mb 48f 46f
3:24am 18 22 mph 1024.4mb 48f 46f
3:18am 18 23 mph 1024.4mb 48f 46f
3:12am 20 22 mph 1024.4mb 48f 46f
3:06am 21 23 mph 1024.4mb 48f 46f
3:00am 18 23 mph 1024.4mb 48f 46f
2:54am 18 24 mph 1024.4mb 48f 46f
2:48am 22 24 mph 1024.4mb 49f 46f
2:42am 20 25 mph 1024.4mb 49f 46f
2:36am 23 26 mph 1024.4mb 49f 46f
2:30am 23 29 mph 1024.3mb 49f 47f
2:24am 23 26 mph 1024.3mb 49f 47f
2:18am 23 28 mph 1024.3mb 49f 47f
2:12am 21 26 mph 1024.4mb 49f 47f
2:06am 22 26 mph 1024.4mb 49f 48f
2:00am 23 26 mph 1024.5mb 49f 48f
1:54am 23 26 mph 1024.5mb 49f 48f
1:48am 22 25 mph 1024.5mb 49f 48f
1:42am 22 25 mph 1024.5mb 49f 47f
1:36am 22 26 mph 1024.5mb 49f 48f
1:30am 22 28 mph 1024.6mb 49f 48f
1:24am 22 28 mph 1024.6mb 49f 48f
1:18am 22 25 mph 1024.6mb 49f 48f
1:12am 21 25 mph 1024.6mb 49f 47f
1:06am 23 26 mph 1024.6mb 49f 47f
1:00am 22 25 mph 1024.7mb 48f 47f
12:54am 22 26 mph 1024.6mb 48f 47f
12:48am 22 25 mph - 48f -
12:42am 22 25 mph - 49f -
12:36am 21 23 mph - 49f -
12:30am 21 23 mph 1024.8mb 49f 47f
12:24am 20 22 mph 1024.8mb 49f 47f
12:18am 18 22 mph 1024.9mb 49f 47f
12:12am 20 22 mph 1025mb 49f 47f
12:06am 20 22 mph 1025mb 49f 47f
12:00am 18 22 mph 1025.1mb 49f 47f
Fri 12/08 11:54pm 20 22 mph 1025.1mb 49f 47f
11:48pm 18 22 mph 1025.1mb 48f 47f
11:42pm 20 22 mph 1025.2mb 48f 47f
11:36pm 18 23 mph 1025.3mb 48f 47f
11:30pm  -  mph 1025.4mb 48f 47f
11:24pm  -  mph 1025.5mb 49f 48f
11:18pm  -  mph 1025.5mb 49f 48f
11:12pm  -  mph 1025.4mb 49f 48f
11:06pm  -  mph 1025.5mb 49f 48f
11:00pm  -  mph 1025.5mb 49f 48f
10:54pm  -  mph 1025.5mb 49f 48f
10:48pm  -  mph 1025.4mb 49f 48f
10:42pm  -  mph 1025.4mb 49f 48f
10:36pm  -  mph 1025.4mb 49f 48f
10:30pm 14 15 mph 1025.4mb 49f 47f
10:24pm 13 14 mph 1025.4mb 49f 46f
10:18pm  -  mph 1025.4mb 49f 44f
10:12pm  -  mph 1025.5mb 49f 42f
10:06pm  -  mph 1025.3mb 49f 45f
10:00pm 10 13 mph 1025.1mb 49f 46f
9:54pm 10 13 mph 1025.1mb 49f 45f
9:48pm  -  mph 1025.1mb 49f 44f
9:42pm  -  mph 1025.1mb 49f 44f
9:36pm  -  mph 1025.1mb 49f 43f
9:30pm 13 15 mph 1025.1mb 49f 43f
9:24pm 13 16 mph 1025mb 50f 44f
9:18pm 14 16 mph 1024.9mb 50f 44f
9:12pm 15 17 mph 1024.8mb 50f 44f
9:06pm 15 17 mph 1024.8mb 50f 44f
9:00pm  -  mph 1024.8mb 50f 44f
8:54pm  -  mph 1024.7mb 50f 44f
8:48pm  -  mph 1024.7mb 50f 44f
8:42pm  -  mph 1024.7mb 50f 44f
8:36pm  -  mph 1024.6mb 50f 45f
8:30pm 15 16 mph 1024.5mb 50f 46f
8:24pm 15 16 mph 1024.4mb 50f 46f
8:18pm 15 17 mph 1024.5mb 50f 46f
8:12pm 14 16 mph 1024.4mb 50f 46f
8:06pm 15 17 mph 1024.5mb 50f 46f
8:00pm  -  mph 1024.4mb 50f 46f
7:54pm  -  mph 1024.4mb 50f 46f
7:48pm 14 15 mph 1024.4mb 50f 45f
7:42pm 13 15 mph 1024.4mb 50f 45f
7:36pm 13 14 mph 1024.3mb 50f 46f
7:30pm 13 14 mph 1024.1mb 50f 45f
7:24pm 11 13 mph 1024.1mb 50f 46f
7:18pm  -  mph 1024.2mb 50f 46f
7:12pm  -  mph 1024.1mb 50f 46f
7:06pm  -  mph 1024mb 50f 46f
7:00pm 13 14 mph 1023.9mb 50f 45f
6:54pm 10 13 mph 1023.9mb 50f 45f
6:48pm 10 11 mph 1023.8mb 50f 46f
6:42pm 10 11 mph 1023.7mb 50f 46f
6:36pm 9 11 mph 1023.6mb 50f 46f
6:30pm  -  mph 1023.5mb 50f 46f
6:24pm  -  mph 1023.5mb 50f 46f
6:18pm  -  mph 1023.5mb 50f 46f
6:12pm  -  mph 1023.4mb 50f 47f
6:06pm  -  mph 1023.3mb 50f 47f
6:00pm 10 11 mph 1023.3mb 50f 47f
5:54pm 10 11 mph 1023.3mb 50f 47f
5:48pm 10 13 mph 1023.3mb 50f 47f
5:42pm 10 11 mph 1023.2mb 50f 47f
5:36pm 9 11 mph 1023.2mb 50f 47f
5:30pm 11 13 mph 1023.1mb 50f 47f
5:24pm 13 15 mph 1023.1mb 50f 47f
5:18pm 14 14 mph 1023.1mb 50f 47f
5:12pm 13 14 mph 1023.1mb 50f 47f
5:06pm 13 14 mph 1023.1mb 49f 47f
5:00pm 11 14 mph 1023.1mb 49f 47f
4:54pm 11 13 mph 1023mb 49f 47f
4:48pm 10 13 mph 1023mb 49f 47f
4:42pm 11 14 mph 1023mb 49f 47f
4:36pm 10 11 mph 1023.1mb 49f 47f
4:30pm 10 13 mph 1023mb 49f 46f
4:24pm 9 10 mph 1023mb 49f 46f
4:18pm 11 14 mph 1023.2mb 49f 46f
4:12pm 10 14 mph 1023.2mb 49f 45f
4:06pm 9 13 mph 1023.2mb 49f 45f
4:00pm  -  mph 1023.2mb 49f 45f
3:54pm  -  mph 1023.2mb 49f 45f
3:48pm  -  mph 1023.3mb 49f 44f
3:42pm  -  mph 1023.4mb 49f 44f
3:36pm  -  mph 1023.5mb 49f 44f
3:30pm  -  mph 1023.5mb 49f 44f
3:24pm  -  mph 1023.4mb 49f 43f
3:18pm  -  mph 1023.4mb 49f 44f
3:12pm  -  mph 1023.6mb 49f 43f
3:06pm  -  mph 1023.9mb 49f 43f
3:00pm  -  mph 1023.7mb 49f 43f
2:54pm  -  mph 1023.7mb 49f 42f
2:30pm 13 15 mph 1024.1mb 49f 42f
2:24pm 11 14 mph 1024.4mb 49f 42f
2:18pm  -  mph 1024.3mb 49f 42f
2:12pm  -  mph 1024.5mb 49f 42f
2:06pm  -  mph 1024.5mb 49f 42f
2:00pm 13 15 mph 1024.7mb 49f 42f
1:54pm 13 15 mph 1024.8mb 49f 41f
1:48pm 11 14 mph 1025mb 49f 41f
1:42pm 11 15 mph 1025.2mb 49f 41f
1:36pm 11 15 mph 1025mb 49f 41f
1:30pm 13 16 mph 1024.8mb 49f 41f
1:24pm 13 17 mph 1024.8mb 49f 41f
1:18pm  -  mph 1024.9mb 49f 41f
1:12pm  -  mph 1025.2mb 49f 41f
1:06pm  -  mph 1025.4mb 49f 41f
1:00pm 13 16 mph 1025.5mb 49f 40f
12:54pm 13 16 mph 1025.7mb 49f 40f
12:48pm  -  mph 1026.1mb 49f 40f
12:42pm  -  mph 1026.3mb 49f 40f
12:36pm  -  mph 1026.5mb 49f 40f
12:30pm 14 16 mph 1026.6mb 49f 39f
12:24pm 15 17 mph 1026.6mb 49f 39f
12:18pm  -  mph 1026mb 49f 39f
12:12pm  -  mph 1026.7mb 49f 39f
12:06pm  -  mph 1026.7mb 49f 39f
12:00pm 15 16 mph 1027.1mb 49f 39f
11:54am 15 17 mph 1027mb 49f 38f
11:48am  -  mph 1027.5mb 49f 39f
11:42am  -  mph 1027.7mb 49f 39f
11:36am  -  mph 1027.6mb 49f 38f
11:30am 14 18 mph 1027.7mb 49f 38f
11:24am 15 17 mph 1027.5mb 49f 37f
11:18am 14 17 mph 1027.2mb 49f 37f
11:12am 15 17 mph 1027.5mb 49f 38f
11:06am 15 17 mph 1027.7mb 49f 37f
11:00am 14 17 mph 1027.7mb 49f 38f
10:54am 16 18 mph 1028.1mb 49f 38f
10:48am 15 18 mph 1028.3mb 49f 38f
9:54am  -  mph 1029mb 49f 34f
9:48am  -  mph 1028.9mb 49f 34f
9:42am  -  mph 1028.9mb 49f 34f
9:36am  -  mph 1029mb 49f 33f
9:30am 11 14 mph 1028.9mb 49f 33f
9:24am 11 14 mph 1028.5mb 49f 33f
9:18am 11 14 mph 1028.4mb 49f 32f
9:12am 10 14 mph 1028.3mb 49f 33f
9:06am 10 13 mph 1028.2mb 49f 32f
9:00am 10 13 mph 1028.2mb 49f 32f
8:54am 9 13 mph 1028.4mb 49f 32f
8:48am  -  mph 1028.1mb 49f 32f
8:42am  -  mph 1028.1mb 49f 32f
8:36am  -  mph 1028.3mb 49f 32f
8:30am  -  mph 1028.3mb 49f 32f
8:24am  -  mph 1028.4mb 49f 32f
8:18am 15 17 mph 1028.3mb 49f 32f
8:12am 15 18 mph 1028.3mb 49f 32f
8:06am 15 20 mph 1028.2mb 49f 32f
8:00am 17 21 mph 1027.8mb 49f 32f
7:54am 17 20 mph 1028mb 49f 32f
7:48am  -  mph 1028.1mb 49f 33f
7:42am  -  mph 1028.1mb 49f 32f
7:36am  -  mph 1028mb 49f 32f
7:30am  -  mph 1027.9mb 49f 32f
7:24am  -  mph 1028mb 49f 32f
7:18am  -  mph 1027.8mb 49f 33f
7:12am  -  mph 1027.8mb 49f 33f
7:06am  -  mph 1027.8mb 49f 33f
7:00am  -  mph 1027.8mb 49f 32f
6:54am  -  mph 1027.8mb 49f 33f
6:48am  -  mph 1027.8mb 49f 33f
6:42am  -  mph 1027.9mb 49f 32f
6:36am  -  mph 1027.6mb 49f 32f
6:30am 22 25 mph 1027.4mb 49f 32f
6:24am 20 25 mph 1027.7mb 50f 32f
6:18am  -  mph 1027.3mb 50f 32f
6:12am  -  mph 1027mb 50f 33f
6:06am  -  mph 1026.9mb 50f 33f
6:00am  -  mph 1026.8mb 50f 32f
5:54am  -  mph 1026.7mb 50f 32f
5:48am 24 29 mph 1026.9mb 50f 32f
5:42am 24 29 mph 1027.2mb 50f 33f
5:36am 24 31 mph 1027mb 50f 33f
5:30am  -  mph 1027mb 50f 33f
5:24am  -  mph 1027mb 50f 32f
5:18am  -  mph 1026.8mb 50f 33f
5:12am  -  mph 1026.8mb 50f 33f
5:06am  -  mph 1026.8mb 50f 33f
5:00am  -  mph 1026.8mb 50f 33f
4:54am  -  mph 1026.6mb 50f 33f
4:48am 24 29 mph 1026.8mb 51f 33f
4:42am 23 29 mph 1026.7mb 51f 33f
4:36am 24 28 mph 1026.8mb 51f 33f
4:30am  -  mph 1026.9mb 51f 33f
4:24am  -  mph 1026.8mb 51f 33f
4:18am  -  mph 1027mb 51f 33f
4:12am  -  mph 1026.7mb 51f 33f
4:06am  -  mph 1026.9mb 51f 33f
4:00am 23 26 mph 1027.1mb 51f 34f
3:54am 22 26 mph 1027mb 51f 33f
3:48am 23 28 mph 1027.3mb 50f 33f
3:42am 25 29 mph 1027mb 50f 33f
3:36am 25 31 mph 1026.9mb 51f 33f
3:30am 26 29 mph 1026.8mb 51f 33f
3:24am 22 28 mph 1027.3mb 51f 33f
3:18am 25 29 mph 1027.3mb 51f 34f
3:12am 23 28 mph 1027.3mb 51f 33f
3:06am 23 25 mph 1027.3mb 51f 34f
3:00am  -  mph 1027.5mb 51f 33f
2:54am  -  mph 1027.3mb 51f 34f
2:48am  -  mph 1027.3mb 51f 33f
2:42am  -  mph 1027.6mb 51f 34f
2:36am  -  mph 1027.4mb 51f 34f
2:30am  -  mph 1027.2mb 51f 34f
2:24am  -  mph 1027.4mb 51f 34f
2:18am 24 29 mph 1027.4mb 51f 34f
2:12am 24 29 mph 1027.6mb 51f 34f
2:06am 24 30 mph 1027.4mb 51f 34f
2:00am 25 30 mph 1027.4mb 51f 34f
1:54am 24 29 mph 1027.5mb 52f 34f
1:48am  -  mph 1027.6mb 52f 34f
1:42am  -  mph 1027.6mb 52f 34f
1:36am  -  mph 1027.5mb 52f 35f
1:30am  -  mph 1027.5mb 52f 35f
1:24am  -  mph 1027.8mb 52f 35f
1:18am  -  mph 1027.6mb 52f 35f
1:12am  -  mph 1027.5mb 52f 35f
1:06am  -  mph 1027.9mb 52f 35f
1:00am 24 30 mph 1028mb 52f 35f
12:54am 24 30 mph 1028mb 52f 36f
12:48am  -  mph 1027.9mb 52f 35f
12:42am  -  mph 1027.6mb 52f 36f
12:36am  -  mph 1027.6mb 52f 37f
12:30am  -  mph 1027.7mb 52f 36f
12:24am  -  mph 1027.8mb 52f 36f
12:18am 28 34 mph 1027.6mb 52f 37f
12:12am 25 29 mph 1027.8mb 53f 38f
12:06am 24 29 mph 1027.6mb 53f 37f
12:00am  -  mph 1027.6mb 53f 37f
Thu 12/07 11:48pm 25 31 mph 1027.5mb 53f 38f
11:42pm 25 30 mph 1027.8mb 53f 37f
11:36pm 28 36 mph 1027.9mb 53f 38f
11:30pm 28 33 mph 1027.9mb 53f 38f
11:24pm 28 34 mph 1027.6mb 53f 38f
11:18pm 26 31 mph 1027.8mb 53f 38f
11:12pm 26 31 mph 1027.8mb 53f 38f
11:06pm 24 30 mph 1027.7mb 53f 39f
11:00pm 28 34 mph 1027.7mb 53f 39f
10:54pm 26 32 mph 1027.5mb 53f 39f
10:48pm 29 36 mph 1027.7mb 53f 38f
10:42pm 29 37 mph 1028.3mb 53f 39f
10:36pm 31 38 mph 1028.2mb 53f 39f
10:30pm 26 32 mph 1028mb 53f 40f
10:24pm 24 31 mph 1028.1mb 53f 39f
10:18pm 25 30 mph 1027.9mb 53f 39f
10:12pm 26 32 mph 1027.5mb 53f 39f
10:06pm 26 32 mph 1027.2mb 53f 39f
10:00pm 23 31 mph 1027.1mb 53f 40f
9:54pm 25 31 mph 1026.9mb 53f 41f
9:48pm 26 31 mph 1027mb 53f 40f
9:42pm 23 28 mph 1026.9mb 53f 42f
9:36pm 25 34 mph 1027mb 53f 42f
9:30pm 28 33 mph 1026.8mb 53f 41f
9:24pm 24 32 mph 1026.9mb 53f 42f
9:18pm 28 33 mph 1026.7mb 53f 42f
9:12pm 26 33 mph 1026.5mb 53f 43f
9:06pm 28 33 mph 1026mb 54f 43f
9:00pm 29 34 mph 1026mb 54f 43f
8:54pm 26 32 mph 1025.8mb 54f 43f
8:48pm 28 30 mph 1025.7mb 54f 43f
8:42pm 26 31 mph 1025.6mb 54f 43f
8:36pm 26 31 mph 1025.8mb 54f 43f
8:30pm 26 31 mph 1025.4mb 54f 43f
8:24pm 26 32 mph 1025.4mb 54f 43f
8:18pm  -  mph - 54f 43f
8:12pm  -  mph - 54f 43f
8:06pm  -  mph - 54f 43f
8:00pm 24 29 mph 1025.3mb 54f 43f
7:54pm 26 31 mph 1024.8mb 54f 44f
7:48pm 26 31 mph 1025.3mb 54f 43f
7:42pm 28 36 mph 1025.5mb 54f 44f
7:36pm 26 34 mph 1025.3mb 54f 44f
7:30pm 24 30 mph 1025.3mb 54f 43f
7:24pm 21 26 mph 1025mb 54f 43f
7:18pm 21 25 mph 1025mb 54f -
7:12pm 23 28 mph 1025mb 54f -
7:06pm 24 29 mph 1024.8mb 55f -
7:00pm 25 30 mph 1025.1mb 55f 43f
6:48pm 22 24 mph 1025.1mb 55f 43f
6:42pm 21 26 mph 1025.2mb 55f 43f
6:36pm 22 25 mph 1025mb 55f 43f
6:30pm 23 26 mph 1024.9mb 55f 43f
6:24pm 20 22 mph 1024.8mb 55f 43f
6:18pm 20 25 mph 1024.6mb 55f 43f
6:12pm 23 26 mph 1024.2mb 55f 43f
6:06pm 22 26 mph 1024.1mb 55f 43f
6:00pm 22 25 mph 1024.2mb 55f 44f
5:54pm 21 28 mph 1024.4mb 55f 43f
5:48pm 22 26 mph 1024.6mb 55f 43f
5:42pm 22 25 mph 1024.1mb 55f 43f
5:36pm 23 25 mph 1024mb 55f 43f
5:30pm 23 26 mph 1024.1mb 55f 43f
5:24pm 22 25 mph 1023.9mb 55f 43f
5:18pm 23 28 mph 1024mb 55f 43f
5:12pm 22 26 mph 1023.9mb 55f 43f
5:06pm 21 24 mph 1023.6mb 55f 44f
5:00pm 20 26 mph 1023.9mb 55f 44f
4:54pm 20 24 mph 1023.9mb 55f 44f
4:48pm 23 28 mph 1023.7mb 55f 44f
4:42pm 22 28 mph 1023.4mb 55f 44f
4:36pm 23 26 mph 1023.5mb 55f 44f
4:30pm 24 28 mph 1023.5mb 55f 44f
4:24pm 23 28 mph 1023.5mb 55f 44f
4:18pm 22 26 mph 1023mb 55f -
4:12pm 22 26 mph 1023.3mb 55f -
4:06pm 23 29 mph 1023.5mb 55f -
4:00pm 25 32 mph 1023.2mb 55f 43f
3:54pm 24 30 mph 1023mb 55f 43f
3:48pm 26 30 mph 1022.9mb 56f 43f
3:42pm 30 34 mph 1023.4mb 55f 43f
3:36pm 29 34 mph 1023.5mb 56f 43f
3:30pm 25 30 mph 1023.2mb 56f 43f
3:24pm 26 32 mph 1023.6mb 56f 43f
3:18pm 26 30 mph 1023.6mb 56f 43f
3:12pm 28 34 mph 1023.8mb 56f 43f
3:06pm 25 33 mph 1023.7mb 56f 43f
3:00pm 23 29 mph 1023.9mb 56f 43f
2:54pm 22 33 mph 1023.8mb 56f 43f
2:48pm 29 36 mph 1024.1mb 56f 43f
2:42pm 29 33 mph 1024mb 56f 43f
2:36pm 24 29 mph 1023.7mb 56f 43f
2:30pm 24 30 mph 1024.2mb 56f 43f
2:24pm 24 28 mph 1024.1mb 56f 43f
2:18pm 24 30 mph 1023.9mb 56f 43f
2:12pm 24 32 mph 1023.8mb 56f 43f
2:06pm 26 31 mph 1023.6mb 56f 43f
2:00pm 24 29 mph 1023.5mb 56f 43f
1:54pm 22 30 mph 1023.6mb 56f 43f
1:48pm 25 30 mph 1024mb 56f 42f
1:42pm 28 31 mph 1024.2mb 56f 43f
1:36pm 26 33 mph 1024.2mb 56f 43f
1:30pm 26 33 mph 1024.2mb 56f 43f
1:24pm 26 32 mph 1024.4mb 56f 43f
1:18pm 23 29 mph 1024.2mb 56f 44f
1:12pm 26 31 mph 1024.5mb 56f 44f
1:06pm 26 29 mph 1024.4mb 56f 43f
1:00pm 26 33 mph 1024.5mb 56f 44f
12:48pm 25 29 mph 1025mb 56f 43f
12:42pm 25 33 mph 1025.2mb 56f 44f
12:36pm 24 31 mph 1025.2mb 56f 44f
12:30pm 26 29 mph 1025mb 56f 44f
12:24pm 25 30 mph 1024.8mb 56f 43f
12:18pm 24 30 mph 1025.2mb 56f 43f
12:12pm 24 28 mph 1025.7mb 56f 44f
12:06pm 23 28 mph 1025.9mb 56f 44f
12:00pm 23 30 mph 1025.6mb 56f 44f
11:54am 26 32 mph 1025.8mb 56f 44f
11:48am 28 31 mph 1025.1mb 56f 44f
11:42am 24 29 mph 1025.7mb 56f 44f
11:36am 25 29 mph 1026.5mb 56f 44f
11:30am 25 29 mph 1025.8mb 56f 44f
11:24am 25 32 mph 1026.3mb 56f 44f
11:18am 25 30 mph 1026.3mb 56f 44f
11:12am 24 29 mph 1025.7mb 56f 44f
11:06am 26 32 mph 1025.3mb 56f 44f
11:00am 24 30 mph 1025.5mb 56f 44f
10:54am 26 33 mph 1025.8mb 56f 44f
10:48am 28 33 mph 1026.1mb 56f 45f
10:42am 28 32 mph 1026.2mb 56f 45f
10:36am 26 32 mph 1026.3mb 56f 44f
10:30am 25 33 mph 1026.5mb 56f 45f
10:24am 26 32 mph 1026.3mb 56f 44f
10:18am 26 30 mph 1026.1mb 56f 45f
10:12am 24 30 mph 1025.9mb 56f 45f
10:06am 23 30 mph 1026.1mb 56f 45f
10:00am 25 29 mph 1026.1mb 56f 45f
9:54am 23 36 mph 1026.2mb 56f 46f
9:48am 31 37 mph 1026.1mb 56f 46f
9:42am 30 36 mph 1026.2mb 56f 45f
9:36am 29 33 mph 1026.1mb 57f 46f
9:30am 25 31 mph 1025.8mb 57f 45f
9:24am 25 29 mph 1025.8mb 57f 45f
9:18am 26 29 mph 1025.7mb 57f 45f
9:12am 25 32 mph 1025.9mb 57f 45f
9:06am 25 30 mph 1025.9mb 57f 45f
9:00am 28 31 mph 1025.9mb 57f 45f
8:54am 28 32 mph 1025.6mb 57f 45f
8:48am 26 33 mph 1025.5mb 57f 45f
8:42am 28 33 mph 1025.4mb 57f 45f
8:36am 24 32 mph 1025.4mb 57f 46f
8:30am 26 31 mph 1025.7mb 57f 44f
8:24am 26 30 mph 1025.7mb 57f 44f
8:18am 28 33 mph 1025.6mb 57f 44f
8:12am 26 32 mph 1025.5mb 57f 44f
8:06am 26 31 mph 1025.4mb 57f 44f
8:00am 25 30 mph 1025.4mb 57f 44f
7:54am 24 29 mph 1025.3mb 57f 44f
7:48am 25 29 mph 1025.2mb 57f 44f
7:42am 25 31 mph 1025.3mb 57f 44f
7:36am 25 29 mph 1025.3mb 57f 44f
7:30am 25 29 mph 1025.3mb 58f 43f
7:24am 24 31 mph 1025.3mb 58f 44f
7:18am 25 30 mph 1025.2mb 58f 43f
7:12am 26 31 mph 1024.9mb 58f 43f
7:06am 24 28 mph 1024.9mb 58f 44f
7:00am 23 26 mph 1025.2mb 58f 43f
6:54am 22 28 mph 1025.2mb 58f 44f
6:48am 22 26 mph 1025.3mb 58f 43f
6:42am 23 26 mph 1025mb 58f 44f
6:36am 23 26 mph 1024.6mb 58f 43f
6:30am 22 26 mph 1024.7mb 58f 43f
6:24am 21 24 mph 1024.8mb 58f 44f
6:18am 22 25 mph 1024.7mb 58f 43f
6:12am 22 25 mph 1024.4mb 58f 43f
6:06am 22 26 mph 1024.4mb 58f 44f
6:00am 21 28 mph 1024.3mb 58f 44f
5:54am 18 22 mph 1023.7mb 59f 43f
5:48am 22 25 mph 1024.1mb 59f 44f
5:42am 21 24 mph 1024.2mb 59f 44f
5:36am 18 23 mph 1024mb 59f 44f
5:30am 20 23 mph 1023.9mb 59f 44f
5:24am 20 23 mph 1023.8mb 59f 44f
5:18am 21 24 mph 1023.6mb 59f 44f
5:12am 21 24 mph 1023.6mb 59f 44f
5:06am 21 25 mph 1023.7mb 59f 44f
5:00am 20 22 mph 1023.6mb 59f 44f
4:54am 20 22 mph 1023.6mb 59f 44f
4:48am 21 24 mph 1023.5mb 59f 44f
4:42am 15 22 mph 1022.9mb 59f 44f
4:36am 22 25 mph 1024.3mb 59f 44f
4:30am 20 23 mph 1024.2mb 59f 44f
4:24am 20 22 mph 1024.1mb 59f 45f
4:18am 20 22 mph 1024mb 59f 44f